User: anonymous   Login
Location: Homewood
(41.1836°S, 175.9581°E)
Time: 15:41:33
(UTC+00:00)
Language:

Meteor 2-20 - Orbit

View from above orbital plane
View from above orbital plane
View from above satellite
View from above satellite

Ground track
Ground track

The orbit data is extracted from the following two-line orbital elements,

1 20826U 90086A   24165.79908832  .00000052  00000-0  33677-4 0  9992
2 20826  82.5257  62.1222 0012118 285.2481  74.7339 13.84360334702846
Epoch (UTC): 13 June 2024 19:10:41
Eccentricity: 0.0012118
inclination: 82.5257°
perigee height: 939 km
apogee height: 957 km
right ascension of ascending node: 62.1222°
argument of perigee: 285.2481°
revolutions per day: 13.84360334
mean anomaly at epoch: 74.7339°
orbit number at epoch: 70284

The dashed part of the orbit path shows where the satellite is in the earth's shadow,  

DLR